Precipitable_Water
0.71 0.68 0.67 0.64 0.58 0.52 0.48 0.46 0.47 0.47 0.48 0.45 0.44 0.42 0.39 0.39 0.40 0.40 0.38 0.35 0.36 0.33
0.68 0.66 0.63 0.60 0.56 0.52 0.50 0.48 0.48 0.49 0.45 0.44 0.42 0.40 0.39 0.38 0.38 0.36 0.33 0.32 0.30 0.28
0.65 0.64 0.61 0.58 0.53 0.49 0.49 0.51 0.51 0.46 0.45 0.43 0.41 0.40 0.38 0.36 0.34 0.29 0.27 0.24 0.23 0.21
0.64 0.63 0.59 0.54 0.51 0.50 0.54 0.53 0.45 0.44 0.44 0.43 0.40 0.36 0.33 0.30 0.28 0.25 0.23 0.23 0.21 0.20
0.63 0.60 0.55 0.52 0.51 0.57 0.53 0.46 0.45 0.44 0.42 0.39 0.35 0.32 0.29 0.27 0.25 0.24 0.22 0.21 0.21 0.19
0.59 0.55 0.52 0.53 0.58 0.52 0.45 0.44 0.42 0.40 0.38 0.35 0.33 0.29 0.27 0.27 0.26 0.25 0.24 0.23 0.21 0.19
0.56 0.55 0.56 0.56 0.49 0.45 0.43 0.39 0.38 0.36 0.34 0.32 0.30 0.29 0.27 0.26 0.27 0.26 0.26 0.25 0.23 0.21
0.56 0.55 0.53 0.47 0.44 0.41 0.39 0.39 0.36 0.32 0.30 0.29 0.29 0.28 0.27 0.27 0.27 0.26 0.26 0.26 0.23 0.21
0.53 0.50 0.45 0.42 0.40 0.39 0.37 0.33 0.30 0.28 0.27 0.26 0.26 0.26 0.26 0.26 0.26 0.26 0.25 0.25 0.23 0.22
0.45 0.42 0.40 0.37 0.35 0.31 0.28 0.26 0.24 0.23 0.22 0.22 0.22 0.22 0.23 0.24 0.23 0.23 0.25 0.26 0.26 0.26
0.38 0.35 0.33 0.29 0.25 0.23 0.22 0.20 0.20 0.20 0.20 0.18 0.17 0.17 0.18 0.21 0.21 0.22 0.22 0.23 0.24 0.25
0.32 0.27 0.24 0.21 0.20 0.20 0.20 0.19 0.18 0.16 0.15 0.14 0.14 0.16 0.17 0.19 0.18 0.18 0.19 0.20 0.22 0.22
0.24 0.22 0.20 0.20 0.19 0.18 0.16 0.14 0.14 0.14 0.15 0.16 0.16 0.17 0.18 0.18 0.18 0.18 0.18 0.20 0.20 0.22
0.21 0.18 0.18 0.17 0.16 0.15 0.14 0.14 0.14 0.14 0.15 0.16 0.17 0.18 0.19 0.21 0.20 0.18 0.18 0.18 0.19 0.21
Wind_Speed
26 27 27 29 30 31 31 32 33 36 38 38 38 38 38 38 36 33 31 30 30 30
26 27 28 30 31 32 32 34 36 38 39 40 39 40 39 37 34 33 33 33 33 33
27 28 29 31 32 33 34 36 38 40 40 40 40 40 39 37 36 36 36 36 37 37
28 29 30 32 33 34 37 39 40 41 41 41 42 41 40 39 39 39 40 40 41 42
28 30 32 33 35 37 39 40 41 42 43 43 43 43 43 43 43 44 44 45 45 46
29 31 33 35 37 39 40 41 43 44 46 46 46 47 47 48 48 49 49 49 49 50
30 32 35 37 38 39 42 44 46 48 48 49 50 51 51 52 52 53 54 54 54 53
31 34 36 37 39 42 45 47 49 50 52 53 54 54 54 55 56 58 58 57 57 57
32 34 36 39 43 46 48 50 51 53 54 55 55 57 58 58 60 62 61 59 59 58
33 36 39 42 45 47 49 52 54 55 57 58 59 60 61 62 63 62 59 58 58 56
36 39 42 45 47 50 52 55 57 58 60 61 62 62 62 61 60 58 55 52 49 46
39 41 44 47 50 53 56 58 59 61 62 62 62 60 58 55 53 48 45 41 39 37
41 44 47 51 54 56 58 61 62 62 61 60 57 54 51 46 42 39 36 34 32 32
44 47 51 54 57 59 60 61 61 60 57 54 49 44 40 37 33 32 31 30 28 27
Wind_Direction
298 301 304 306 308 310 311 312 313 314 316 316 316 316 316 315 313 312 310 308 305 302
297 300 303 305 307 309 309 310 311 312 313 314 314 314 315 313 312 310 308 306 304 301
296 299 301 304 305 307 308 310 311 311 312 312 313 313 313 311 310 308 306 304 303 301
295 298 300 303 304 306 308 309 310 311 311 311 311 311 310 309 308 306 304 303 302 300
296 299 302 304 305 307 308 309 310 311 310 310 309 309 308 306 305 304 303 301 300 299
298 300 303 304 306 307 308 310 310 311 310 309 308 307 305 304 303 302 300 299 298 298
300 303 304 306 307 308 309 310 310 310 309 308 307 305 303 302 301 300 299 297 296 296
304 305 307 308 309 310 310 310 310 310 309 307 306 304 303 302 300 300 299 296 295 295
308 309 310 310 311 311 311 311 310 310 309 309 307 305 303 301 300 300 298 295 294 295
312 312 313 313 313 313 312 312 311 311 310 309 307 306 304 302 300 299 298 296 295 295
315 315 315 314 314 314 314 313 312 311 310 309 308 306 305 304 302 301 299 298 297 295
317 317 316 316 316 315 315 314 313 312 311 310 309 309 307 306 305 304 303 301 300 299
319 319 318 318 317 316 316 315 314 314 313 312 312 311 311 310 310 309 308 307 305 304
321 321 320 319 318 318 317 317 317 316 316 315 315 315 315 315 315 315 313 312 311 310